This is the latest recevied weather packets stored in our database for station/object SP1BMW-13. If no packets are shown the sender has not sent any weather packets the latest 10 day(s).
| Time | Temp. | Humidity | Pressure | Rain* | Wind** | Luminosity | Snow |
|---|---|---|---|---|---|---|---|
| 1778070892 | 9.44° C | 93% | 1006.2 hPa | 0.25 mm | 0.45 m/s, 11° | 164 W/m² | - |
| 1778070832 | 9.44° C | 93% | 1006.2 hPa | 0.25 mm | 0.45 m/s, 310° | 164 W/m² | - |
| 1778070772 | 9.44° C | 93% | 1006.2 hPa | 0.25 mm | 1.79 m/s, 302° | 156 W/m² | - |
| 1778070712 | 9.44° C | 93% | 1006.2 hPa | 0.25 mm | 0.45 m/s, 344° | 164 W/m² | - |
| 1778070652 | 9.44° C | 94% | 1006 hPa | 0.25 mm | 1.79 m/s, 318° | 154 W/m² | - |
| 1778070592 | 9.44° C | 94% | 1006.2 hPa | 0.25 mm | 0.45 m/s, 265° | 143 W/m² | - |
| 1778070534 | 9.44° C | 93% | 1006 hPa | 0.25 mm | 0.45 m/s, 9° | 159 W/m² | - |
| 1778070472 | 9.44° C | 93% | 1005.9 hPa | 0.25 mm | 0.89 m/s, 293° | 171 W/m² | - |
| 1778070412 | 9.44° C | 93% | 1006.1 hPa | 0.25 mm | 1.34 m/s, 40° | 192 W/m² | - |
| 1778070352 | 9.44° C | 93% | 1006.1 hPa | 0.25 mm | 1.79 m/s, 341° | 185 W/m² | - |
| 1778070293 | 9.44° C | 93% | 1006 hPa | 0.25 mm | 2.24 m/s, 345° | 157 W/m² | - |
| 1778070232 | 9.44° C | 93% | 1006 hPa | 0.25 mm | 0.89 m/s, 22° | 130 W/m² | - |
| 1778070172 | 9.44° C | 93% | 1006 hPa | 0.25 mm | 1.79 m/s, 85° | 124 W/m² | - |
| 1778070112 | 9.44° C | 93% | 1006.1 hPa | 0.25 mm | 1.79 m/s, 304° | 129 W/m² | - |
| 1778070052 | 9.44° C | 93% | 1006 hPa | 0.25 mm | 2.24 m/s, 244° | 130 W/m² | - |
| 1778069992 | 9.44° C | 93% | 1006.1 hPa | 0.51 mm | 0.89 m/s, 359° | 136 W/m² | - |
| 1778069932 | 9.44° C | 93% | 1005.9 hPa | 0.51 mm | 0.89 m/s, 3° | 156 W/m² | - |
| 1778069872 | 9.44° C | 93% | 1005.9 hPa | 0.51 mm | 0 m/s | 168 W/m² | - |
| 1778069812 | 9.44° C | 93% | 1006 hPa | 0.51 mm | 0.89 m/s, 42° | 158 W/m² | - |
| 1778069752 | 9.44° C | 94% | 1006.1 hPa | 0.51 mm | 1.34 m/s, 320° | 148 W/m² | - |
| 1778069691 | 9.44° C | 94% | 1006 hPa | 0.51 mm | 0.45 m/s, 286° | 154 W/m² | - |
| 1778069632 | 9.44° C | 94% | 1005.9 hPa | 0.25 mm | 1.34 m/s, 14° | 140 W/m² | - |
| 1778069571 | 9.44° C | 94% | 1006 hPa | 0.25 mm | 0.89 m/s, 262° | 137 W/m² | - |
| 1778069512 | 9.44° C | 94% | 1005.8 hPa | 0.25 mm | 0.89 m/s, 273° | 124 W/m² | - |
| 1778069452 | 9.44° C | 94% | 1005.9 hPa | 0.25 mm | 1.34 m/s, 347° | 122 W/m² | - |
* Rain latest hour (hover to see other rain measurements)
** Current wind speed in m/s (hover to see current wind gust speed)